[[{"header":{"parameterUnit":"m.s-1","parameterCategory":1,"la1":30.2991,"la2":30.254,"lo1":-89.0895,"lo2":-89.0444,"dy":0.0017,"dx":0.0017,"nx":28,"ny":28,"refTime":"2025-06-03T21:00:00:Z","depth":0,"parameterNumber":2,"parameterNumberName":"U-component_of_WINDS"},"data":[0,0,0,0,0,0,0,0,0,0,0,0,0,0,0,0,0,0,0,0,0,0,0,0,0,0,0,0,0,0,0,0,0,0,0,0,0,0,0,0,0,0,0,0,0,0,0,0,0,0,0,0,0,0,0,0,0,0,-4.6546,-4.6545,0,-4.6464,-4.6463,-4.6462,-4.6334,-4.6332,-4.6329,-4.6327,-4.6244,-4.6244,-4.6244,0,0,0,0,0,0,0,0,0,0,0,0,0,-4.6596,-4.6596,-4.6546,-4.6545,-4.6544,-4.6464,-4.6463,-4.6462,-4.6334,-4.6332,-4.6329,-4.6326,-4.6244,-4.6244,-4.6244,0,0,0,0,0,0,0,0,0,0,0,0,0,-4.655,-4.6596,-4.6547,-4.6471,-4.6463,-4.6464,-4.6463,-4.6461,-4.6335,-4.6332,-4.6328,-4.6325,-4.6244,-4.6244,-4.6244,-4.6313,0,0,-4.6244,-4.6244,0,0,0,0,0,0,0,0,-4.6553,-4.6549,-4.6483,-4.6476,-4.6468,-4.6406,-4.645,-4.6412,-4.6336,-4.6384,-4.6327,-4.6323,-4.6301,-4.6296,-4.6288,-4.6309,-4.6305,-4.6244,-4.6244,-4.6244,-4.6244,0,0,0,0,0,0,0,-4.6556,-4.6552,-4.6514,-4.6482,-4.6473,-4.6442,-4.6432,-4.6442,-4.6363,-4.6379,-4.637,-4.6362,-4.6296,-4.6289,-4.6285,-4.6304,-4.6244,-4.6244,-4.6244,-4.6244,-4.6376,-4.638,0,0,0,0,0,0,-4.6571,-4.6555,-4.6516,-4.6511,-4.6503,-4.6444,-4.6432,-4.6429,-4.6362,-4.6349,-4.6365,-4.6356,-4.629,-4.6285,-4.6282,-4.6356,-4.6244,-4.6244,-4.6244,-4.6373,-4.6377,-4.6381,0,0,0,0,0,0,-4.6572,-4.6568,-4.652,-4.653,-4.6522,-4.6447,-4.6444,-4.6429,-4.6421,-4.6351,-4.6337,-4.6371,-4.6287,-4.6282,-4.6306,-4.6351,-4.6244,-4.6244,-4.6369,-4.6374,-4.6379,-4.6506,0,0,0,0,0,0,-4.6574,-4.657,-4.6594,-4.6532,-4.6522,-4.6544,-4.6447,-4.643,-4.6421,-4.6409,-4.6354,-4.6341,-4.6284,-4.6307,-4.6306,-4.6349,-4.6244,-4.6364,-4.6371,-4.6377,-4.6498,-4.6515,-4.6531,0,0,0,0,0,-4.6576,-4.6633,-4.6596,-4.6592,-4.6551,-4.6547,-4.6541,-4.6474,-4.6426,-4.645,-4.6405,-4.6343,-4.6348,-4.631,-4.6308,-4.6352,-4.6361,-4.6369,-4.6377,-4.649,-4.6512,-4.653,0,0,0,0,0,0,-4.6703,-4.6624,-4.6581,-4.662,-4.6591,-4.6526,-4.6553,-4.65,-4.6484,-4.6474,-4.6392,-4.6381,-4.6415,-4.6386,-4.6346,-4.6415,-4.6345,-4.6353,-4.6432,-4.6452,-4.6468,-4.6472,-4.6243,0,0,0,0,0,-4.6735,-4.6738,-4.667,-4.6711,-4.6698,-4.6629,-4.6625,-4.6576,-4.6543,-4.6531,-4.6487,-4.6459,-4.6453,-4.6451,-4.6443,-4.6494,-4.648,-4.6524,-4.6541,-4.6555,-4.6561,-4.6586,-4.6604,-4.6407,-4.6407,-4.6407,0,0,-4.6802,-4.6759,-4.6766,-4.6735,-4.6707,-4.6712,-4.662,-4.6629,-4.6632,-4.6532,-4.6551,-4.6519,-4.6482,-4.652,-4.6534,-4.6497,-4.6613,-4.6565,-4.6576,-4.6575,-4.6596,-4.6615,-4.6631,-4.6413,-4.6412,-4.6411,0,0,-4.6926,-4.6895,-4.6924,-4.6899,-4.6857,-4.6811,-4.6819,-4.6762,-4.6737,-4.6755,-4.668,-4.6684,-4.6677,-4.6652,-4.6639,-4.6757,-4.6699,-4.6757,-4.6842,-4.6867,-4.6882,-4.6896,-4.6936,-4.6952,-4.6765,-4.6766,-4.6766,0,-4.7013,-4.7018,-4.6947,-4.6961,-4.6949,-4.686,-4.689,-4.6869,-4.6828,-4.6822,-4.6781,-4.6771,-4.6739,-4.677,-4.6799,-4.6792,-4.6798,-4.6761,-4.6886,-4.6898,-4.691,-4.6947,-4.6963,-4.6773,-4.6772,-4.6771,-4.677,0,-4.7127,-4.7132,-4.7161,-4.7123,-4.7115,-4.7138,-4.7071,-4.7072,-4.7025,-4.6984,-4.7004,-4.6964,-4.6945,-4.695,-4.6904,-4.6974,-4.6952,-4.6901,-4.6827,-4.6937,-4.6971,-4.6985,-4.6783,-4.678,-4.6778,-4.6776,0,0,-4.7324,-4.7248,-4.726,-4.7241,-4.7191,-4.7193,-4.7213,-4.7194,-4.7196,-4.7173,-4.7186,-4.7183,-4.7135,-4.7121,-4.7072,-4.7095,-4.7189,-4.7039,-4.7037,-4.7067,-4.7262,-4.7299,-4.7317,-4.7152,-4.7154,-4.7156,-4.7265,0,-4.7435,-4.7462,-4.74,-4.7442,-4.7445,-4.7362,-4.7379,-4.735,-4.7313,-4.7311,-4.7271,-4.7269,-4.7207,-4.7197,-4.7216,-4.7174,-4.7227,-4.7165,-4.7163,-4.7163,-4.7171,-4.7335,-4.7374,-4.7478,-4.7278,-4.728,-4.7281,0,-4.7567,-4.7549,-4.7592,-4.7539,-4.7538,-4.7554,-4.7533,-4.7532,-4.7499,-4.7471,-4.7456,-4.74,-4.7416,-4.7349,-4.7369,-4.7329,-4.7325,-4.7305,-4.7307,-4.7301,-4.7227,-4.7332,-4.751,-4.7525,-4.7302,-4.73,-4.7299,0,-4.7704,-4.7691,-4.7714,-4.7702,-4.7642,-4.7655,-4.7631,-4.7594,-4.7587,-4.757,-4.7564,-4.755,-4.7541,-4.7531,-4.7472,-4.7429,-4.75,-4.7428,-4.7476,-4.7478,-4.7491,-4.7491,-4.7669,-4.7495,-4.7495,-4.7494,-4.7494,0,-4.7832,-4.7861,-4.7775,-4.7789,-4.7819,-4.7749,-4.7781,-4.7749,-4.7718,-4.7724,-4.7653,-4.7661,-4.7585,-4.7585,-4.7541,-4.7564,-4.7561,-4.7538,-4.7525,-4.7543,-4.7545,-4.7536,-4.7527,-4.7498,-4.7497,-4.7497,-4.7496,0,-4.7988,-4.7932,-4.7951,-4.7894,-4.788,-4.7905,-4.7855,-4.7867,-4.7827,-4.7836,-4.7835,-4.7772,-4.7768,-4.771,-4.7695,-4.7665,-4.7706,-4.7681,-4.7716,-4.7707,-4.7757,-4.7753,-4.7933,-4.7953,-4.777,-4.7772,-4.7773,0,-4.8072,-4.8092,-4.8037,-4.8036,-4.8015,-4.8015,-4.8008,-4.7942,-4.7937,-4.7902,-4.7918,-4.7909,-4.7897,-4.7897,-4.785,-4.7838,-4.7811,-4.7875,-4.7808,-4.7825,-4.7808,-4.7807,-4.7808,-4.7888,-4.789,-4.7892,-4.7894,0,-4.8226,-4.8198,-4.819,-4.8173,-4.8166,-4.815,-4.8129,-4.8133,-4.806,-4.8059,-4.8054,-4.8046,-4.8031,-4.8023,-4.8003,-4.7979,-4.7924,-4.7916,-4.7926,-4.7942,-4.7961,-4.7949,-4.7752,-4.7911,-4.7909,-4.7908,-4.7907,-4.7906,-4.8346,-4.836,-4.8324,-4.8317,-4.8295,-4.8278,-4.8285,-4.8247,-4.8242,-4.8223,-4.8185,-4.8187,-4.8154,-4.8122,-4.8103,-4.8104,-4.8071,-4.8086,-4.8089,-4.8093,-4.8102,-4.7964,-4.81,-4.81,-4.8099,-4.8099,-4.8098,0,-4.8495,-4.8468,-4.8463,-4.8436,-4.8432,-4.8382,-4.8357,-4.8357,-4.8359,-4.8333,-4.8324,-4.832,-4.8312,-4.8266,-4.8254,-4.8263,-4.8238,-4.8262,-4.8259,-4.8254,-4.8133,-4.8125,-4.8283,-4.8283,-4.8283,-4.8282,-4.8282,-4.8282,-4.8571,-4.8591,-4.8559,-4.8568,-4.8541,-4.8542,-4.8532,-4.8516,-4.8495,-4.8493,-4.8486,-4.8456,-4.8423,-4.8407,-4.8399,-4.8385,-4.8383,-4.8415,-4.8393,-4.8281,-4.8263,-4.8246,-4.8237,-4.8416,-4.8416,-4.8513,-4.8514,-4.8515]},{"header":{"parameterUnit":"m.s-1","parameterCategory":1,"la1":30.2991,"la2":30.254,"lo1":-89.0895,"lo2":-89.0444,"dy":0.0017,"dx":0.0017,"nx":28,"ny":28,"refTime":"2025-06-03T21:00:00:Z","depth":0,"parameterNumber":3,"parameterNumberName":"V-component_of_WINDS"},"data":[0,0,0,0,0,0,0,0,0,0,0,0,0,0,0,0,0,0,0,0,0,0,0,0,0,0,0,0,0,0,0,0,0,0,0,0,0,0,0,0,0,0,0,0,0,0,0,0,0,0,0,0,0,0,0,0,0,0,2.3545,2.3545,0,2.3539,2.3539,2.3539,2.3567,2.3568,2.3569,2.3569,2.3558,2.3557,2.3556,0,0,0,0,0,0,0,0,0,0,0,0,0,2.3576,2.3575,2.3545,2.3545,2.3545,2.3539,2.3539,2.3539,2.3567,2.3568,2.3569,2.357,2.3559,2.3558,2.3556,0,0,0,0,0,0,0,0,0,0,0,0,0,2.3565,2.3575,2.3545,2.3558,2.3559,2.3539,2.3539,2.3539,2.3567,2.3568,2.3569,2.357,2.3559,2.3558,2.3556,2.3522,0,0,2.3551,2.3551,0,0,0,0,0,0,0,0,2.3566,2.3564,2.3556,2.3557,2.3558,2.3555,2.3546,2.3533,2.3566,2.3564,2.3569,2.3571,2.3556,2.3555,2.3551,2.3521,2.3521,2.3551,2.355,2.355,2.3549,0,0,0,0,0,0,0,2.3567,2.3565,2.3542,2.3556,2.3557,2.3563,2.3563,2.3544,2.3553,2.3564,2.3566,2.3565,2.3557,2.3552,2.3551,2.352,2.3551,2.355,2.3549,2.3548,2.3463,2.3461,0,0,0,0,0,0,2.3566,2.3565,2.3542,2.3542,2.3565,2.3561,2.3561,2.3555,2.3553,2.3554,2.3564,2.3566,2.3554,2.3553,2.355,2.351,2.355,2.3548,2.3547,2.3464,2.3462,2.3461,0,0,0,0,0,0,2.3567,2.3564,2.3543,2.3554,2.3552,2.356,2.3552,2.3554,2.355,2.3553,2.3555,2.3558,2.3555,2.3553,2.3529,2.351,2.3547,2.3546,2.3465,2.3463,2.3462,2.3428,0,0,0,0,0,0,2.3568,2.3564,2.3552,2.3554,2.3551,2.3522,2.3551,2.3553,2.3547,2.355,2.3548,2.3549,2.3556,2.3531,2.3527,2.3508,2.3545,2.3467,2.3464,2.3462,2.3431,2.3426,2.3421,0,0,0,0,0,2.3569,2.3541,2.3551,2.3548,2.3536,2.3521,2.352,2.353,2.3546,2.3533,2.3535,2.3549,2.3513,2.3529,2.3525,2.3505,2.3468,2.3465,2.3462,2.3434,2.3427,2.3421,0,0,0,0,0,0,2.3535,2.3542,2.3552,2.3525,2.3523,2.3526,2.351,2.3522,2.3514,2.3517,2.3529,2.3528,2.3502,2.3501,2.3518,2.3472,2.3493,2.3489,2.3473,2.3466,2.3461,2.3461,2.3543,0,0,0,0,0,2.3525,2.3513,2.3519,2.3495,2.3493,2.3502,2.3496,2.3504,2.3501,2.35,2.35,2.3496,2.3484,2.3475,2.3464,2.3432,2.3431,2.3416,2.3411,2.3407,2.3403,2.3386,2.3379,2.3451,2.3451,2.3451,0,0,2.3502,2.3505,2.3496,2.3488,2.3487,2.3474,2.35,2.3485,2.3475,2.3497,2.3475,2.3475,2.3471,2.3443,2.3431,2.3441,2.3383,2.3403,2.34,2.3398,2.3382,2.3375,2.3369,2.3449,2.3449,2.345,0,0,2.3455,2.3456,2.3436,2.3435,2.3434,2.344,2.3436,2.3437,2.3439,2.3418,2.3434,2.3422,2.3401,2.3397,2.3392,2.3346,2.3357,2.3342,2.3314,2.3297,2.3291,2.3286,2.3269,2.3263,2.3338,2.3338,2.3338,0,2.3427,2.3409,2.3424,2.3408,2.3403,2.3425,2.3404,2.3402,2.3396,2.3392,2.3405,2.338,2.3378,2.335,2.3339,2.3335,2.3329,2.3341,2.3291,2.3286,2.3282,2.3266,2.3259,2.3336,2.3336,2.3337,2.3337,0,2.3375,2.3362,2.3346,2.3342,2.3336,2.3318,2.3328,2.332,2.333,2.3335,2.3313,2.3312,2.3302,2.3296,2.3304,2.3268,2.3275,2.329,2.3311,2.3273,2.3258,2.3252,2.3333,2.3334,2.3335,2.3335,0,0,2.3304,2.3311,2.3304,2.3303,2.3304,2.3294,2.3277,2.3268,2.3261,2.3257,2.3242,2.3224,2.3238,2.3233,2.3241,2.3227,2.3189,2.3243,2.3243,2.3232,2.315,2.3138,2.3131,2.3198,2.3197,2.3196,2.315,0,2.3258,2.323,2.3243,2.3213,2.3201,2.3222,2.3207,2.3205,2.3209,2.3199,2.3203,2.3191,2.321,2.3207,2.3194,2.3197,2.3173,2.32,2.3183,2.3182,2.3182,2.3123,2.311,2.3067,2.3144,2.3143,2.3142,0,2.3199,2.3195,2.3164,2.3168,2.3164,2.315,2.3144,2.3134,2.3133,2.3137,2.3132,2.3144,2.3126,2.3149,2.3125,2.3143,2.3137,2.3137,2.3136,2.3133,2.3159,2.3118,2.3053,2.3046,2.3133,2.3134,2.3135,0,2.315,2.3137,2.3117,2.3115,2.3119,2.3109,2.311,2.3111,2.3105,2.3099,2.3095,2.3087,2.3082,2.3075,2.3084,2.31,2.3058,2.3081,2.3059,2.3059,2.3048,2.3048,2.298,2.3046,2.3046,2.3046,2.3046,0,2.3096,2.3076,2.3095,2.3082,2.306,2.3076,2.3053,2.3057,2.3057,2.3044,2.3062,2.305,2.3063,2.3052,2.3059,2.3037,2.3035,2.3037,2.3039,2.3035,2.3034,2.3029,2.3032,2.3044,2.3045,2.3045,2.3045,0,2.3037,2.3049,2.3028,2.3035,2.3036,2.302,2.3025,2.3013,2.302,2.3004,2.3001,2.301,2.2998,2.3007,2.2994,2.2999,2.297,2.2977,2.2971,2.2972,2.295,2.2951,2.2875,2.2866,2.2938,2.2937,2.2937,0,2.3001,2.2987,2.2993,2.2987,2.2987,2.2977,2.2972,2.2987,2.2981,2.2979,2.2967,2.2957,2.2949,2.2929,2.2933,2.2924,2.293,2.2904,2.2928,2.2925,2.2929,2.2929,2.2927,2.2898,2.2898,2.2897,2.2896,0,2.2937,2.2944,2.2936,2.2932,2.2926,2.2922,2.292,2.2913,2.2928,2.292,2.2909,2.2904,2.2892,2.2881,2.2874,2.2874,2.2887,2.2889,2.2883,2.2878,2.2875,2.2876,2.2956,2.289,2.2891,2.2891,2.2892,2.2892,2.2887,2.2876,2.2879,2.287,2.287,2.2868,2.2858,2.2864,2.2855,2.2848,2.2857,2.2843,2.2843,2.2834,2.2833,2.2822,2.2832,2.2824,2.2821,2.2819,2.2815,2.2878,2.282,2.282,2.2821,2.2821,2.2821,0,2.2823,2.2827,2.2819,2.2816,2.2809,2.2825,2.2823,2.2816,2.2804,2.2804,2.2797,2.2784,2.2774,2.2779,2.277,2.276,2.2766,2.2757,2.2757,2.2757,2.2807,2.2812,2.2753,2.2753,2.2753,2.2753,2.2753,2.2753,2.2789,2.277,2.2777,2.2758,2.2762,2.275,2.2747,2.2745,2.2745,2.273,2.2723,2.2727,2.2728,2.272,2.2711,2.2713,2.2708,2.2697,2.27,2.2747,2.2753,2.276,2.2765,2.2696,2.2696,2.2652,2.2651,2.2651]}]]